This is the latest recevied weather packets stored in our database for station/object KJ5EHN. If no packets are shown the sender has not sent any weather packets the latest 10 day(s).
| Time | Temp. | Humidity | Pressure | Rain* | Wind** | Luminosity | Snow |
|---|---|---|---|---|---|---|---|
| 1777668706 | 19.44° C | 53% | 1015.7 hPa | 0 mm | - | - | - |
| 1777668403 | 19.44° C | 54% | 1015.8 hPa | 0 mm | - | - | - |
| 1777668098 | 19.44° C | 55% | 1016 hPa | 0 mm | - | - | - |
| 1777667795 | 20° C | 53% | 1015.9 hPa | 0 mm | - | - | - |
| 1777667493 | 19.44° C | 54% | 1015.9 hPa | 0 mm | - | - | - |
| 1777667190 | 19.44° C | 54% | 1016 hPa | 0 mm | - | - | - |
| 1777666887 | 18.89° C | 54% | 1016 hPa | 0 mm | - | - | - |
| 1777666584 | 18.89° C | 54% | 1016 hPa | 0 mm | - | - | - |
| 1777666280 | 19.44° C | 53% | 1015.8 hPa | 0 mm | - | - | - |
| 1777665977 | 18.89° C | 56% | 1016.2 hPa | 0 mm | - | - | - |
| 1777665675 | 18.89° C | 56% | 1015.6 hPa | 0 mm | - | - | - |
| 1777665372 | 18.89° C | 56% | 1015.8 hPa | 0 mm | - | - | - |
| 1777665068 | 18.33° C | 57% | 1015.7 hPa | 0 mm | - | - | - |
| 1777664763 | 18.89° C | 56% | 1015.7 hPa | 0 mm | - | - | - |
| 1777664459 | 18.89° C | 57% | 1015.5 hPa | 0 mm | - | - | - |
| 1777664157 | 18.33° C | 57% | 1015.4 hPa | 0 mm | - | - | - |
| 1777663855 | 18.33° C | 57% | 1015.8 hPa | 0 mm | - | - | - |
| 1777663551 | 18.33° C | 57% | 1016 hPa | 0 mm | - | - | - |
| 1777663250 | 18.89° C | 58% | 1016.2 hPa | 0 mm | - | - | - |
| 1777662946 | 18.89° C | 57% | 1016.3 hPa | 0 mm | - | - | - |
| 1777662644 | 18.89° C | 56% | 1016.2 hPa | 0 mm | - | - | - |
| 1777662339 | 18.89° C | 54% | 1015.8 hPa | 0 mm | - | - | - |
| 1777662035 | 18.89° C | 56% | 1015.8 hPa | 0 mm | - | - | - |
| 1777661731 | 18.89° C | 56% | 1016 hPa | 0 mm | - | - | - |
| 1777661427 | 18.89° C | 57% | 1016.3 hPa | 0 mm | - | - | - |
* Rain latest hour (hover to see other rain measurements)
** Current wind speed in m/s (hover to see current wind gust speed)